GW4971 Weather Reports


time (UTC)temp
C
wind
direction
speed
KPH
gust
KPH
rain 1hr
cm
rain 24hr
cm
rain mn
cm
humidity
%
barometer
mb
20260507231518 13 256 3.2 8.0 0.00 0.00 0.00 46 1010.8
20260507230518 13 267 3.2 9.7 0.00 0.00 0.00 46 1010.8
20260507225519 13 247 4.8 14.5 0.00 0.00 0.00 46 1010.7
20260507224519 13 248 3.2 9.7 0.00 0.00 0.00 47 1010.7
20260507223539 14 246 3.2 9.7 0.00 0.00 0.00 45 1010.6
20260507222539 13 261 3.2 11.3 0.00 0.00 0.00 47 1010.4
20260507221519 14 254 3.2 8.0 0.00 0.00 0.00 46 1010.5
20260507220519 15 285 3.2 11.3 0.00 0.00 0.00 45 1010.2
20260507215540 14 180 4.8 12.9 0.00 0.00 0.00 47 1010.2
20260507214517 15 276 3.2 14.5 0.00 0.00 0.00 45 1010.1
20260507213517 15 224 3.2 9.7 0.00 0.00 0.00 45 1009.9
20260507212520 15 286 4.8 12.9 0.00 0.00 0.00 45 1010.1
20260507211600 15 207 4.8 12.9 0.00 0.00 0.00 45 1009.9
20260507210537 15 261 4.8 11.3 0.00 0.00 0.00 48 1009.8
20260507205518 15 262 3.2 12.9 0.00 0.00 0.00 45 1009.8
20260507204517 15 254 4.8 11.3 0.00 0.00 0.00 45 1009.8
20260507203518 15 294 4.8 12.9 0.00 0.00 0.00 47 1009.8
20260507202538 15 292 4.8 11.3 0.00 0.00 0.00 45 1009.9
20260507201518 15 251 6.4 16.1 0.00 0.00 0.00 48 1009.8
20260507200518 15 294 4.8 12.9 0.00 0.00 0.00 46 1010.0
20260507195519 16 290 4.8 22.5 0.00 0.00 0.00 46 1010.1
20260507194539 17 221 4.8 14.5 0.00 0.00 0.00 45 1009.9
20260507193519 16 215 4.8 16.1 0.00 0.00 0.00 47 1010.0
20260507192519 15 306 4.8 11.3 0.00 0.00 0.00 49 1010.2
20260507191536 15 200 3.2 14.5 0.00 0.00 0.00 48 1010.2
20260507190517 16 282 3.2 8.0 0.00 0.00 0.00 52 1010.2
20260507185520 16 261 3.2 9.7 0.00 0.00 0.00 49 1010.3
20260507184520 15 263 3.2 9.7 0.00 0.00 0.00 55 1010.2
20260507183520 14 283 3.2 8.0 0.00 0.00 0.00 51 1010.7
20260507182520 14 276 3.2 12.9 0.00 0.00 0.00 52 1010.7
20260507181517 15 190 6.4 14.5 0.00 0.00 0.00 52 1010.5
20260507180518 15 285 4.8 12.9 0.00 0.00 0.00 52 1010.7
20260507175518 15 262 1.6 9.7 0.00 0.00 0.00 51 1010.8
20260507174518 15 195 4.8 12.9 0.00 0.00 0.00 48 1010.7
20260507173538 15 261 6.4 14.5 0.00 0.00 0.00 51 1010.9
20260507172518 15 296 4.8 14.5 0.00 0.00 0.00 53 1010.9
20260507171518 15 228 3.2 11.3 0.00 0.00 0.00 51 1011.2
20260507170518 16 213 4.8 11.3 0.00 0.00 0.00 52 1011.1
20260507165518 14 169 4.8 14.5 0.00 0.00 0.00 52 1011.4
20260507164539 15 285 3.2 11.3 0.00 0.00 0.00 53 1011.4
20260507163516 14 180 3.2 9.7 0.00 0.00 0.00 50 1011.5
20260507162519 15 245 4.8 11.3 0.00 0.00 0.00 52 1011.5
20260507161520 15 274 3.2 12.9 0.00 0.00 0.00 53 1011.6
20260507160519 15 188 3.2 8.0 0.00 0.00 0.00 52 1011.7
20260507155520 15 241 3.2 8.0 0.00 0.00 0.00 53 1011.6
20260507154517 14 209 4.8 12.9 0.00 0.00 0.00 54 1011.8
20260507153517 15 287 4.8 14.5 0.00 0.00 0.00 55 1011.9
20260507152517 13 252 4.8 14.5 0.00 0.00 0.00 55 1012.0
20260507151520 14 283 4.8 12.9 0.00 0.00 0.00 58 1012.1
20260507150521 13 178 4.8 12.9 0.00 0.00 0.00 56 1012.2
20260507145521 13 294 4.8 14.5 0.00 0.00 0.00 58 1012.5
20260507144518 13 204 6.4 16.1 0.00 0.00 0.00 55 1012.6
20260507143518 13 302 3.2 9.7 0.00 0.00 0.00 61 1012.7
20260507142538 13 301 3.2 8.0 0.00 0.00 0.00 60 1012.7
20260507141619 13 226 1.6 9.7 0.00 0.00 0.00 61 1012.9
20260507140518 12 236 3.2 9.7 0.00 0.00 0.00 64 1013.0
20260507135519 12 258 3.2 8.0 0.00 0.00 0.00 64 1013.2
20260507134539 11 194 3.2 11.3 0.00 0.00 0.00 65 1013.2
20260507133539 11 211 3.2 8.0 0.00 0.00 0.00 68 1013.2
20260507132519 11 174 3.2 8.0 0.00 0.00 0.00 71 1013.3
20260507131519 10 44 3.2 6.4 0.00 0.00 0.00 79 1013.3
20260507130520 7 70 1.6 6.4 0.00 0.00 0.00 91 1013.4
20260507125523 6 31 1.6 3.2 0.00 0.00 0.00 97 1013.5
20260507124523 6 9 1.6 6.4 0.00 0.00 0.00 99 1013.5
20260507123523 5 335 1.6 3.2 0.00 0.00 0.00 99 1013.6
20260507122524 5 332 0.0 3.2 0.00 0.00 0.00 99 1013.7
20260507121523 4 16 0.0 1.6 0.00 0.00 0.00 99 1013.7
20260507120523 3 41 0.0 1.6 0.00 0.03 0.00 99 1013.7
20260507115523 2 58 0.0 1.6 0.00 0.05 0.00 99 1013.6
20260507114524 2 69 0.0 0.0 0.00 0.08 0.00 98 1013.6
20260507113524 1 9 0.0 3.2 0.00 0.10 0.00 98 1013.5
20260507112524 1 357 0.0 1.6 0.00 0.10 0.00 98 1013.4
20260507111544 1 319 0.0 1.6 0.00 0.10 0.00 98 1013.4
20260507110524 1 0.0 0.0 0.00 0.10 0.00 98 1013.4
20260507105545 1 335 0.0 0.0 0.00 0.13 0.00 98 1013.4
20260507104525 1 346 0.0 0.0 0.00 0.15 0.00 98 1013.2
20260507103525 1 287 0.0 1.6 0.00 0.20 0.00 97 1013.1
20260507102525 1 303 0.0 1.6 0.00 0.23 0.00 97 1013.1
20260507101525 1 20 0.0 0.0 0.00 0.28 0.00 97 1013.1
20260507100526 1 340 0.0 0.0 0.00 0.38 0.00 97 1013.1
20260507095526 1 301 0.0 1.6 0.00 0.46 0.00 97 1013.0
20260507094526 1 305 0.0 1.6 0.00 0.51 0.00 97 1013.1
20260507093526 1 282 0.0 1.6 0.00 0.56 0.00 97 1013.1
20260507092526 1 320 0.0 1.6 0.00 0.61 0.00 97 1013.1
20260507091526 1 310 0.0 3.2 0.00 0.64 0.00 97 1013.2
20260507090526 1 305 0.0 3.2 0.00 0.69 0.00 96 1013.3
20260507085526 2 335 0.0 1.6 0.00 0.76 0.00 96 1013.3
20260507084526 2 320 0.0 1.6 0.00 0.81 0.00 96 1013.2
20260507083527 2 317 0.0 1.6 0.00 0.86 0.00 96 1013.2
20260507082527 2 295 0.0 1.6 0.00 0.89 0.00 96 1013.2
20260507081527 2 332 0.0 1.6 0.00 0.91 0.00 96 1013.1
20260507080527 2 322 0.0 1.6 0.00 0.91 0.00 95 1013.1
20260507075527 2 329 1.6 3.2 0.00 0.91 0.00 95 1013.1
20260507074528 3 315 0.0 1.6 0.00 0.91 0.00 95 1013.2
20260507073528 3 2 0.0 1.6 0.00 0.91 0.00 94 1013.2
20260507072528 3 320 0.0 1.6 0.00 0.91 0.00 94 1013.3
20260507071528 3 324 0.0 3.2 0.00 0.91 0.00 93 1013.3
20260507070529 4 333 0.0 1.6 0.00 0.91 0.00 92 1013.3
20260507065528 4 336 0.0 1.6 0.00 0.91 0.00 92 1013.4
20260507064529 5 340 1.6 3.2 0.00 0.94 0.00 91 1013.3
20260507063529 5 342 1.6 3.2 0.00 0.97 0.00 90 1013.3
20260507062529 6 344 3.2 3.2 0.00 0.99 0.00 89 1013.3
20260507061530 6 352 1.6 3.2 0.00 1.02 0.00 88 1013.3
20260507060529 7 337 0.0 3.2 0.00 1.02 0.00 89 1013.3
20260507055530 7 331 0.0 1.6 0.00 1.04 0.00 88 1013.4
20260507054530 7 352 0.0 1.6 0.00 1.04 0.00 87 1013.5
20260507053550 7 352 0.0 1.6 0.00 1.04 0.00 88 1013.8
20260507052519 7 325 0.0 3.2 0.00 1.04 0.00 89 1013.9
20260507051539 7 323 0.0 1.6 0.00 1.07 0.00 88 1013.9
20260507050519 7 320 0.0 1.6 0.00 1.09 0.00 89 1013.9
20260507045521 7 296 0.0 1.6 0.00 1.09 0.00 89 1013.9
20260507044519 7 317 0.0 1.6 0.00 1.12 0.00 89 1013.8
20260507043519 7 322 0.0 3.2 0.00 1.12 0.00 89 1013.8
20260507042519 7 299 0.0 3.2 0.00 1.12 0.00 89 1013.9
20260507041516 7 326 0.0 1.6 0.00 1.12 0.00 89 1013.8
20260507040517 8 321 0.0 3.2 0.00 1.12 0.00 90 1013.8
20260507035517 8 326 0.0 3.2 0.00 1.12 1.12 89 1013.6
20260507034521 8 330 0.0 1.6 0.00 1.12 1.12 89 1013.7
20260507033537 8 321 0.0 1.6 0.00 1.12 1.12 88 1013.6
20260507032517 8 337 0.0 3.2 0.00 1.12 1.12 87 1013.5
20260507031558 8 323 0.0 1.6 0.00 1.12 1.12 88 1013.4
20260507030518 8 339 0.0 1.6 0.00 1.12 1.12 87 1013.4
20260507025538 8 337 0.0 1.6 0.00 1.12 1.12 86 1013.5
20260507024518 8 339 0.0 3.2 0.00 1.12 1.12 86 1013.3
20260507023518 8 348 1.6 3.2 0.00 1.12 1.12 86 1013.3
20260507022539 8 350 1.6 3.2 0.00 1.12 1.12 84 1013.1
20260507021519 9 350 1.6 3.2 0.00 1.12 1.12 85 1013.2
20260507020519 9 353 0.0 3.2 0.00 1.12 1.12 83 1013.0
20260507015539 9 357 0.0 3.2 0.00 1.12 1.12 81 1012.8
20260507014539 9 0 0.0 3.2 0.00 1.12 1.12 81 1012.5
20260507013516 9 341 0.0 3.2 0.00 1.12 1.12 77 1012.5
20260507012519 9 4 0.0 4.8 0.00 1.12 1.12 77 1012.5
20260507011520 9 5 1.6 4.8 0.00 1.12 1.12 79 1012.4
20260507010620 10 345 1.6 3.2 0.00 1.12 1.12 84 1012.6
20260507005537 10 350 1.6 3.2 0.00 1.12 1.12 83 1012.7
20260507004518 10 345 1.6 3.2 0.00 1.12 1.12 83 1013.0
20260507003538 10 346 0.0 3.2 0.00 1.12 1.12 79 1012.8
20260507002538 10 336 1.6 3.2 0.00 1.12 1.12 78 1012.9
20260507001520 11 360 0.0 3.2 0.00 1.12 1.12 75 1012.7
20260507000538 11 313 0.0 1.6 0.00 1.12 1.12 71 1012.7
20260506235538 11 279 1.6 6.4 0.00 1.12 1.12 70 1012.7
20260506234519 11 214 1.6 4.8 0.00 1.12 1.12 74 1012.4
20260506233518 11 317 1.6 6.4 0.00 1.12 1.12 76 1012.3
20260506232518 12 327 0.0 3.2 0.00 1.12 1.12 78 1012.2